| time (UTC) | temp F | wind direction | speed knots | gust knots | rain 1hr in | rain 24hr in | rain mn in | humidity % | barometer mb |
| 20260506155216 | 55 | 234 | 0.0 | 0.9 | 0.00 | 0.00 | 0.00 | 88 | 4304.6 |
| 20260506153317 | 52 | 196 | 0.0 | 0.0 | 0.00 | 0.00 | 0.00 | 95 | 4304.7 |
| 20260506152814 | 51 | 211 | 0.0 | 0.0 | 0.00 | 0.00 | 0.00 | 96 | 4304.9 |
| 20260506152311 | 51 | 259 | 0.0 | 0.0 | 0.00 | 0.00 | 0.00 | 96 | 4304.9 |
| 20260506151810 | 51 | 203 | 0.0 | 0.0 | 0.00 | 0.00 | 0.00 | 97 | 4304.6 |
| 20260506151307 | 51 | 195 | 0.0 | 0.0 | 0.00 | 0.00 | 0.00 | 98 | 4304.9 |
| 20260506150803 | 50 | 206 | 0.0 | 0.0 | 0.00 | 0.00 | 0.00 | 98 | 4304.8 |
| 20260506150304 | 50 | 197 | 0.0 | 0.0 | 0.00 | 0.00 | 0.00 | 98 | 4304.8 |
| 20260506145757 | 50 | 221 | 0.0 | 0.0 | 0.00 | 0.00 | 0.00 | 99 | 4305.0 |
| 20260506145254 | 50 | 176 | 0.0 | 0.0 | 0.00 | 0.00 | 0.00 | 99 | 4304.7 |
| 20260506144751 | 49 | 176 | 0.0 | 0.0 | 0.00 | 0.00 | 0.00 | 99 | 4304.9 |
| 20260506144248 | 50 | 167 | 0.0 | 0.0 | 0.00 | 0.00 | 0.00 | 99 | 4305.0 |
| 20260506143746 | 49 | 163 | 0.0 | 0.0 | 0.00 | 0.00 | 0.00 | 99 | 4304.9 |
| 20260506143243 | 48 | 163 | 0.0 | 0.0 | 0.00 | 0.00 | 0.00 | 99 | 4304.8 |
| 20260506142741 | 48 | 160 | 0.0 | 0.0 | 0.00 | 0.00 | 0.00 | 99 | 4304.7 |
| 20260506142239 | 46 | 160 | 0.0 | 0.0 | 0.00 | 0.00 | 0.00 | 99 | 4304.7 |
| 20260506141737 | 46 | 143 | 0.0 | 0.0 | 0.00 | 0.00 | 0.00 | 99 | 4304.6 |
| 20260506141235 | 46 | 147 | 0.0 | 0.0 | 0.00 | 0.00 | 0.00 | 99 | 4304.6 |
| 20260506140732 | 46 | 131 | 0.0 | 0.0 | 0.00 | 0.00 | 0.00 | 99 | 4304.7 |
| 20260506140229 | 46 | 139 | 0.0 | 0.0 | 0.00 | 0.00 | 0.00 | 99 | 4304.6 |
| 20260506135726 | 46 | 141 | 0.0 | 0.0 | 0.00 | 0.00 | 0.00 | 99 | 4304.6 |
| 20260506135222 | 46 | 141 | 0.0 | 0.0 | 0.00 | 0.00 | 0.00 | 99 | 4304.5 |
| 20260506134719 | 46 | 141 | 0.0 | 0.0 | 0.00 | 0.00 | 0.00 | 99 | 4304.5 |
| 20260506134215 | 46 | 141 | 0.0 | 0.0 | 0.00 | 0.00 | 0.00 | 99 | 4304.5 |
| 20260506133713 | 46 | 142 | 0.0 | 0.0 | 0.00 | 0.00 | 0.00 | 99 | 4304.3 |
| 20260506133209 | 46 | 142 | 0.0 | 0.0 | 0.00 | 0.00 | 0.00 | 99 | 4304.4 |
| 20260506132706 | 46 | 134 | 0.0 | 0.0 | 0.00 | 0.00 | 0.00 | 99 | 4304.3 |
| 20260506132203 | 46 | 140 | 0.0 | 0.0 | 0.00 | 0.00 | 0.00 | 99 | 4304.4 |
| 20260506131701 | 46 | 141 | 0.0 | 0.0 | 0.00 | 0.00 | 0.00 | 99 | 4304.3 |
| 20260506131156 | 46 | 140 | 0.0 | 0.0 | 0.00 | 0.00 | 0.00 | 99 | 4304.2 |
| 20260506130654 | 46 | 141 | 0.0 | 0.0 | 0.00 | 0.00 | 0.00 | 99 | 4304.2 |
| 20260506130151 | 47 | 141 | 0.0 | 0.0 | 0.00 | 0.00 | 0.00 | 99 | 4304.5 |
| 20260506125649 | 47 | 141 | 0.0 | 0.0 | 0.00 | 0.00 | 0.00 | 99 | 4304.1 |
| 20260506125147 | 47 | 141 | 0.0 | 0.0 | 0.00 | 0.00 | 0.00 | 99 | 4304.3 |
| 20260506124645 | 47 | 141 | 0.0 | 0.0 | 0.00 | 0.00 | 0.00 | 99 | 4304.0 |
| 20260506124142 | 47 | 127 | 0.0 | 0.0 | 0.00 | 0.00 | 0.00 | 99 | 4304.0 |
| 20260506123639 | 47 | 171 | 0.0 | 0.0 | 0.00 | 0.00 | 0.00 | 99 | 4304.3 |
| 20260506123138 | 47 | 174 | 0.0 | 0.0 | 0.00 | 0.00 | 0.00 | 99 | 4304.1 |
| 20260506122634 | 47 | 135 | 0.0 | 0.0 | 0.00 | 0.00 | 0.00 | 99 | 4304.1 |
| 20260506122132 | 47 | 114 | 0.0 | 0.0 | 0.00 | 0.00 | 0.00 | 99 | 4304.0 |
| 20260506121629 | 47 | 112 | 0.0 | 0.0 | 0.00 | 0.00 | 0.00 | 99 | 4303.8 |
| 20260506121126 | 47 | 108 | 0.0 | 0.0 | 0.00 | 0.00 | 0.00 | 99 | 4303.7 |
| 20260506120624 | 48 | 103 | 0.0 | 0.9 | 0.00 | 0.00 | 0.00 | 98 | 4303.6 |
| 20260506120121 | 48 | 109 | 0.0 | 0.9 | 0.00 | 0.00 | 0.00 | 98 | 4303.7 |
| 20260506115619 | 48 | 84 | 0.9 | 1.7 | 0.00 | 0.00 | 0.00 | 98 | 4304.0 |
| 20260506115117 | 48 | 113 | 0.0 | 0.0 | 0.00 | 0.00 | 0.00 | 98 | 4303.7 |
| 20260506114614 | 48 | 113 | 0.0 | 0.0 | 0.00 | 0.00 | 0.00 | 98 | 4303.8 |
| 20260506114112 | 48 | 113 | 0.0 | 0.0 | 0.00 | 0.00 | 0.00 | 97 | 4303.7 |
| 20260506113610 | 48 | 95 | 0.0 | 0.0 | 0.00 | 0.00 | 0.00 | 97 | 4303.7 |
| 20260506113107 | 47 | 114 | 0.0 | 0.0 | 0.00 | 0.00 | 0.00 | 97 | 4303.7 |
| 20260506112603 | 47 | 114 | 0.0 | 0.0 | 0.00 | 0.00 | 0.00 | 97 | 4303.8 |
| 20260506112101 | 48 | 114 | 0.0 | 0.0 | 0.00 | 0.00 | 0.00 | 97 | 4303.9 |
| 20260506111559 | 47 | 113 | 0.0 | 0.0 | 0.00 | 0.00 | 0.00 | 97 | 4303.7 |
| 20260506111056 | 46 | 113 | 0.0 | 0.0 | 0.00 | 0.00 | 0.00 | 97 | 4303.8 |
| 20260506110553 | 46 | 113 | 0.0 | 0.0 | 0.00 | 0.00 | 0.00 | 97 | 4303.7 |
| 20260506110050 | 45 | 113 | 0.0 | 0.0 | 0.00 | 0.00 | 0.00 | 97 | 4303.6 |
| 20260506105546 | 45 | 113 | 0.0 | 0.0 | 0.00 | 0.00 | 0.00 | 97 | 4303.7 |
| 20260506105044 | 46 | 113 | 0.0 | 0.0 | 0.00 | 0.00 | 0.00 | 96 | 4303.5 |
| 20260506104542 | 47 | 113 | 0.0 | 0.0 | 0.00 | 0.00 | 0.00 | 97 | 4303.7 |
| 20260506104039 | 48 | 113 | 0.0 | 0.0 | 0.00 | 0.00 | 0.00 | 97 | 4303.5 |
| 20260506103536 | 47 | 113 | 0.0 | 0.0 | 0.00 | 0.00 | 0.00 | 97 | 4303.3 |
| 20260506103033 | 48 | 113 | 0.0 | 0.0 | 0.00 | 0.00 | 0.00 | 97 | 4303.6 |
| 20260506102532 | 47 | 113 | 0.0 | 0.0 | 0.00 | 0.00 | 0.00 | 97 | 4303.6 |
| 20260506102029 | 47 | 113 | 0.0 | 0.0 | 0.00 | 0.00 | 0.00 | 97 | 4303.7 |
| 20260506101525 | 48 | 113 | 0.0 | 0.0 | 0.00 | 0.00 | 0.00 | 97 | 4303.6 |
| 20260506101022 | 48 | 112 | 0.0 | 0.0 | 0.00 | 0.00 | 0.00 | 97 | 4303.5 |
| 20260506100520 | 48 | 112 | 0.0 | 0.0 | 0.00 | 0.00 | 0.00 | 97 | 4303.5 |
| 20260506100018 | 47 | 112 | 0.0 | 0.0 | 0.00 | 0.00 | 0.00 | 97 | 4303.5 |
| 20260506095517 | 47 | 106 | 0.0 | 0.0 | 0.00 | 0.00 | 0.00 | 96 | 4303.6 |
| 20260506095012 | 47 | 113 | 0.0 | 0.0 | 0.00 | 0.00 | 0.00 | 96 | 4303.6 |
| 20260506094511 | 47 | 113 | 0.0 | 0.0 | 0.00 | 0.00 | 0.00 | 97 | 4303.6 |
| 20260506094008 | 47 | 113 | 0.0 | 0.0 | 0.00 | 0.00 | 0.00 | 96 | 4303.4 |
| 20260506093506 | 47 | 113 | 0.0 | 0.0 | 0.00 | 0.00 | 0.00 | 96 | 4303.6 |
| 20260506093004 | 47 | 112 | 0.0 | 0.0 | 0.00 | 0.00 | 0.00 | 96 | 4303.6 |
| 20260506092501 | 47 | 111 | 0.0 | 0.0 | 0.00 | 0.00 | 0.00 | 96 | 4303.5 |
| 20260506091957 | 47 | 88 | 0.0 | 0.0 | 0.00 | 0.00 | 0.00 | 96 | 4303.3 |
| 20260506091456 | 47 | 106 | 0.0 | 0.0 | 0.00 | 0.00 | 0.00 | 96 | 4303.3 |
| 20260506090953 | 47 | 108 | 0.0 | 0.0 | 0.00 | 0.00 | 0.00 | 96 | 4303.5 |
| 20260506090451 | 47 | 92 | 0.0 | 0.9 | 0.00 | 0.00 | 0.00 | 96 | 4303.6 |
| 20260506085947 | 47 | 107 | 0.0 | 0.0 | 0.00 | 0.00 | 0.00 | 96 | 4303.5 |
| 20260506085444 | 47 | 98 | 0.0 | 0.0 | 0.00 | 0.00 | 0.00 | 96 | 4303.5 |
| 20260506084940 | 47 | 96 | 0.0 | 0.0 | 0.00 | 0.00 | 0.00 | 95 | 4303.5 |
| 20260506084437 | 47 | 95 | 0.0 | 0.0 | 0.00 | 0.00 | 0.00 | 95 | 4303.6 |
| 20260506083933 | 47 | 112 | 0.0 | 0.0 | 0.00 | 0.00 | 0.00 | 95 | 4303.7 |
| 20260506083431 | 48 | 113 | 0.0 | 0.0 | 0.00 | 0.00 | 0.00 | 95 | 4303.5 |
| 20260506082928 | 48 | 114 | 0.0 | 0.0 | 0.00 | 0.00 | 0.00 | 94 | 4303.6 |
| 20260506082425 | 48 | 112 | 0.0 | 0.0 | 0.00 | 0.00 | 0.00 | 94 | 4303.6 |
| 20260506081920 | 48 | 126 | 0.0 | 0.0 | 0.00 | 0.00 | 0.00 | 94 | 4303.5 |
| 20260506081419 | 48 | 133 | 0.0 | 0.0 | 0.00 | 0.00 | 0.00 | 94 | 4303.4 |
| 20260506080916 | 48 | 131 | 0.0 | 0.0 | 0.00 | 0.00 | 0.00 | 93 | 4303.6 |
| 20260506080412 | 48 | 167 | 0.0 | 0.0 | 0.00 | 0.00 | 0.00 | 93 | 4303.5 |
| 20260506073357 | 49 | 189 | 0.0 | 0.0 | 0.00 | 0.00 | 0.00 | 91 | 4303.1 |
| 20260506072853 | 49 | 189 | 0.0 | 0.0 | 0.00 | 0.00 | 0.00 | 91 | 4303.2 |
| 20260506072351 | 49 | 191 | 0.0 | 0.0 | 0.00 | 0.00 | 0.00 | 91 | 4303.3 |
| 20260506071848 | 49 | 166 | 0.0 | 0.0 | 0.00 | 0.00 | 0.00 | 91 | 4303.1 |
| 20260506071347 | 49 | 137 | 0.0 | 0.0 | 0.00 | 0.00 | 0.00 | 91 | 4302.9 |
| 20260506070843 | 49 | 137 | 0.0 | 0.0 | 0.00 | 0.00 | 0.00 | 91 | 4303.0 |
| 20260506070340 | 50 | 137 | 0.0 | 0.0 | 0.00 | 0.00 | 0.00 | 91 | 4302.9 |
| 20260506062317 | 50 | 147 | 0.0 | 0.0 | 0.00 | 0.00 | 0.00 | 90 | 4302.5 |
| 20260506061813 | 50 | 149 | 0.0 | 0.0 | 0.00 | 0.00 | 0.00 | 90 | 4302.7 |
| 20260506061310 | 50 | 149 | 0.0 | 0.0 | 0.00 | 0.00 | 0.00 | 89 | 4302.5 |
| 20260506060808 | 50 | 149 | 0.0 | 0.0 | 0.00 | 0.00 | 0.00 | 89 | 4302.5 |
| 20260506060306 | 50 | 149 | 0.0 | 0.0 | 0.00 | 0.00 | 0.00 | 89 | 4302.4 |
| 20260506051237 | 52 | 151 | 0.0 | 0.0 | 0.00 | 0.00 | 0.00 | 86 | 4302.0 |
| 20260506050736 | 53 | 150 | 0.0 | 0.0 | 0.00 | 0.00 | 0.00 | 85 | 4302.2 |
| 20260506050233 | 53 | 150 | 0.0 | 0.0 | 0.00 | 0.00 | 0.00 | 84 | 4302.0 |
| 20260506044723 | 54 | 153 | 0.0 | 0.0 | 0.00 | 0.00 | 0.00 | 83 | 4301.7 |
| 20260506044221 | 54 | 202 | 0.0 | 0.0 | 0.00 | 0.00 | 0.00 | 83 | 4301.7 |
| 20260506043718 | 54 | 202 | 0.0 | 0.0 | 0.00 | 0.00 | 0.00 | 82 | 4301.3 |
| 20260506043216 | 55 | 204 | 0.0 | 0.0 | 0.00 | 0.00 | 0.00 | 81 | 4301.7 |
| 20260506042714 | 55 | 206 | 0.0 | 0.0 | 0.00 | 0.00 | 0.00 | 80 | 4301.7 |
| 20260506042212 | 55 | 206 | 0.0 | 0.0 | 0.00 | 0.00 | 0.00 | 81 | 4301.3 |
| 20260506041710 | 55 | 206 | 0.0 | 0.0 | 0.00 | 0.00 | 0.00 | 81 | 4301.4 |
| 20260506041207 | 55 | 206 | 0.0 | 0.0 | 0.00 | 0.00 | 0.00 | 80 | 4301.4 |
| 20260506040705 | 55 | 206 | 0.0 | 0.0 | 0.00 | 0.00 | 0.00 | 80 | 4301.3 |
| 20260506040201 | 55 | 206 | 0.0 | 0.0 | 0.00 | 0.00 | 0.00 | 79 | 4301.1 |
| 20260506035658 | 55 | 206 | 0.0 | 0.0 | 0.00 | 0.00 | 0.00 | 79 | 4300.8 |
| 20260506035155 | 56 | 206 | 0.0 | 0.0 | 0.00 | 0.00 | 0.00 | 79 | 4301.0 |
| 20260506034651 | 56 | 206 | 0.0 | 0.0 | 0.00 | 0.00 | 0.00 | 79 | 4300.8 |
| 20260506034149 | 56 | 221 | 0.0 | 0.0 | 0.00 | 0.00 | 0.00 | 79 | 4300.9 |
| 20260506033646 | 56 | 221 | 0.0 | 0.0 | 0.00 | 0.00 | 0.00 | 78 | 4300.6 |
| 20260506033143 | 56 | 222 | 0.0 | 0.0 | 0.00 | 0.00 | 0.00 | 78 | 4300.6 |
| 20260506032640 | 56 | 222 | 0.0 | 0.0 | 0.00 | 0.00 | 0.00 | 77 | 4300.5 |
| 20260506032137 | 57 | 233 | 0.9 | 0.9 | 0.00 | 0.00 | 0.00 | 77 | 4300.5 |
| 20260506031634 | 57 | 220 | 0.0 | 0.9 | 0.00 | 0.00 | 0.00 | 76 | 4300.3 |
| 20260506031131 | 57 | 236 | 0.9 | 1.7 | 0.00 | 0.00 | 0.00 | 76 | 4300.0 |
| 20260506030630 | 57 | 215 | 0.0 | 0.0 | 0.00 | 0.00 | 0.00 | 75 | 4300.3 |
| 20260506030126 | 58 | 216 | 0.9 | 0.9 | 0.00 | 0.00 | 0.00 | 75 | 4300.1 |
| 20260506025623 | 58 | 240 | 1.7 | 1.7 | 0.00 | 0.00 | 0.00 | 74 | 4300.0 |
| 20260506025119 | 58 | 233 | 0.9 | 1.7 | 0.00 | 0.00 | 0.00 | 73 | 4300.2 |
| 20260506024617 | 59 | 229 | 2.6 | 2.6 | 0.00 | 0.00 | 0.00 | 72 | 4299.9 |
| 20260506024113 | 59 | 233 | 2.6 | 2.6 | 0.00 | 0.00 | 0.00 | 72 | 4299.9 |
| 20260506023609 | 60 | 222 | 0.9 | 2.6 | 0.00 | 0.00 | 0.00 | 71 | 4299.9 |
| 20260506023107 | 60 | 220 | 2.6 | 4.3 | 0.00 | 0.00 | 0.00 | 71 | 4299.7 |
| 20260506022604 | 60 | 233 | 2.6 | 2.6 | 0.00 | 0.00 | 0.00 | 70 | 4299.8 |
| 20260506022101 | 61 | 263 | 0.0 | 0.0 | 0.00 | 0.00 | 0.00 | 70 | 4299.6 |
| 20260506021559 | 61 | 215 | 2.6 | 2.6 | 0.00 | 0.00 | 0.00 | 68 | 4299.9 |
| 20260506021056 | 62 | 265 | 0.9 | 1.7 | 0.00 | 0.00 | 0.00 | 66 | 4299.6 |
| 20260506020553 | 62 | 270 | 2.6 | 2.6 | 0.00 | 0.00 | 0.00 | 66 | 4299.6 |
| 20260506020051 | 62 | 224 | 0.0 | 0.9 | 0.00 | 0.00 | 0.00 | 65 | 4299.5 |
| 20260506015548 | 62 | 246 | 2.6 | 4.3 | 0.00 | 0.00 | 0.00 | 64 | 4299.3 |
| 20260506015044 | 62 | 281 | 2.6 | 2.6 | 0.00 | 0.00 | 0.00 | 64 | 4299.5 |
| 20260506014542 | 63 | 239 | 1.7 | 4.3 | 0.00 | 0.00 | 0.00 | 64 | 4299.4 |
| 20260506014037 | 63 | 265 | 1.7 | 2.6 | 0.00 | 0.00 | 0.00 | 63 | 4299.4 |
| 20260506013536 | 63 | 263 | 1.7 | 4.3 | 0.00 | 0.00 | 0.00 | 63 | 4299.4 |
| 20260506013032 | 64 | 286 | 1.7 | 2.6 | 0.00 | 0.00 | 0.00 | 63 | 4299.4 |
| 20260506012529 | 64 | 275 | 4.3 | 5.2 | 0.00 | 0.00 | 0.00 | 62 | 4299.1 |
| 20260506012026 | 63 | 224 | 2.6 | 2.6 | 0.00 | 0.00 | 0.00 | 63 | 4299.2 |
| 20260506011523 | 64 | 282 | 2.6 | 4.3 | 0.00 | 0.00 | 0.00 | 64 | 4299.4 |
| 20260506011020 | 64 | 253 | 3.5 | 5.2 | 0.00 | 0.00 | 0.00 | 63 | 4299.4 |
| 20260506010519 | 65 | 257 | 3.5 | 5.2 | 0.00 | 0.00 | 0.00 | 63 | 4299.2 |
| 20260506010015 | 66 | 179 | 0.9 | 1.7 | 0.00 | 0.00 | 0.00 | 61 | 4299.4 |
| 20260506005512 | 65 | 271 | 4.3 | 7.0 | 0.00 | 0.00 | 0.00 | 61 | 4299.3 |
| 20260506005008 | 65 | 228 | 2.6 | 6.1 | 0.00 | 0.00 | 0.00 | 63 | 4299.4 |
| 20260506004506 | 67 | 219 | 2.6 | 4.3 | 0.00 | 0.00 | 0.00 | 60 | 4299.3 |
| 20260506004002 | 68 | 216 | 5.2 | 6.1 | 0.00 | 0.00 | 0.00 | 56 | 4299.3 |
| 20260506003458 | 67 | 263 | 0.9 | 0.9 | 0.00 | 0.00 | 0.00 | 53 | 4299.0 |
| 20260506002954 | 67 | 243 | 2.6 | 4.3 | 0.00 | 0.00 | 0.00 | 53 | 4299.1 |
| 20260506002451 | 66 | 262 | 0.9 | 1.7 | 0.00 | 0.00 | 0.00 | 55 | 4299.2 |
| 20260506001946 | 66 | 241 | 1.7 | 2.6 | 0.00 | 0.00 | 0.00 | 56 | 4299.3 |
| 20260506001443 | 66 | 311 | 0.9 | 1.7 | 0.00 | 0.00 | 0.00 | 56 | 4298.8 |
| 20260506000940 | 66 | 282 | 1.7 | 1.7 | 0.00 | 0.00 | 0.00 | 56 | 4299.1 |
| 20260506000438 | 67 | 241 | 4.3 | 6.1 | 0.00 | 0.00 | 0.00 | 56 | 4299.0 |
| 20260505235935 | 68 | 226 | 0.9 | 1.7 | 0.00 | 0.00 | 0.00 | 54 | 4299.2 |
| 20260505235433 | 67 | 236 | 0.0 | 0.9 | 0.00 | 0.00 | 0.00 | 51 | 4299.1 |
| 20260505234929 | 69 | 225 | 4.3 | 6.1 | 0.00 | 0.00 | 0.00 | 48 | 4299.1 |
| 20260505234427 | 68 | 230 | 1.7 | 4.3 | 0.00 | 0.00 | 0.00 | 48 | 4299.1 |
| 20260505233923 | 68 | 266 | 4.3 | 6.1 | 0.00 | 0.00 | 0.00 | 50 | 4298.9 |
| 20260505233421 | 68 | 252 | 2.6 | 4.3 | 0.00 | 0.00 | 0.00 | 49 | 4299.3 |
| 20260505232919 | 67 | 169 | 1.7 | 2.6 | 0.00 | 0.00 | 0.00 | 51 | 4299.2 |
| 20260505232416 | 68 | 265 | 2.6 | 4.3 | 0.00 | 0.00 | 0.00 | 52 | 4299.3 |
| 20260505231913 | 69 | 230 | 0.0 | 0.9 | 0.00 | 0.00 | 0.00 | 51 | 4299.2 |
| 20260505231410 | 69 | 221 | 2.6 | 2.6 | 0.00 | 0.00 | 0.00 | 49 | 4299.2 |
| 20260505230909 | 70 | 298 | 4.3 | 5.2 | 0.00 | 0.00 | 0.00 | 48 | 4299.2 |
| 20260505230406 | 69 | 297 | 2.6 | 2.6 | 0.00 | 0.00 | 0.00 | 47 | 4299.2 |
| 20260505225902 | 70 | 113 | 0.9 | 0.9 | 0.00 | 0.00 | 0.00 | 47 | 4299.1 |
| 20260505225400 | 71 | 250 | 2.6 | 2.6 | 0.00 | 0.00 | 0.00 | 45 | 4299.2 |
| 20260505224900 | 69 | 231 | 0.0 | 0.0 | 0.00 | 0.00 | 0.00 | 48 | 4299.3 |
| 20260505224358 | 69 | 276 | 2.6 | 4.3 | 0.00 | 0.00 | 0.00 | 48 | 4299.4 |
| 20260505223854 | 70 | 308 | 0.9 | 0.9 | 0.00 | 0.00 | 0.00 | 44 | 4299.3 |
| 20260505223351 | 69 | 296 | 2.6 | 4.3 | 0.00 | 0.00 | 0.00 | 47 | 4299.4 |
| 20260505222847 | 70 | 280 | 3.5 | 5.2 | 0.00 | 0.00 | 0.00 | 45 | 4299.4 |
| 20260505222344 | 69 | 228 | 0.0 | 0.0 | 0.00 | 0.00 | 0.00 | 46 | 4299.6 |
| 20260505221841 | 69 | 279 | 2.6 | 4.3 | 0.00 | 0.00 | 0.00 | 45 | 4299.5 |
| 20260505221337 | 69 | 221 | 0.9 | 0.9 | 0.00 | 0.00 | 0.00 | 46 | 4299.8 |
| 20260505220835 | 70 | 321 | 6.1 | 7.0 | 0.00 | 0.00 | 0.00 | 46 | 4299.6 |
| 20260505220332 | 67 | 255 | 0.0 | 0.0 | 0.00 | 0.00 | 0.00 | 49 | 4299.7 |
| 20260505215830 | 66 | 232 | 3.5 | 6.1 | 0.00 | 0.00 | 0.00 | 51 | 4299.8 |
| 20260505215327 | 67 | 227 | 1.7 | 1.7 | 0.00 | 0.00 | 0.00 | 49 | 4299.8 |
| 20260505214825 | 68 | 295 | 5.2 | 6.1 | 0.00 | 0.00 | 0.00 | 48 | 4300.0 |
| 20260505214322 | 68 | 303 | 2.6 | 5.2 | 0.00 | 0.00 | 0.00 | 49 | 4299.6 |
| 20260505213819 | 69 | 294 | 1.7 | 2.6 | 0.00 | 0.00 | 0.00 | 48 | 4300.0 |
| 20260505213317 | 68 | 335 | 0.0 | 0.0 | 0.00 | 0.00 | 0.00 | 49 | 4300.0 |
| 20260505212813 | 69 | 315 | 2.6 | 4.3 | 0.00 | 0.00 | 0.00 | 49 | 4300.0 |
| 20260505212310 | 67 | 303 | 1.7 | 2.6 | 0.00 | 0.00 | 0.00 | 50 | 4300.0 |
| 20260505211806 | 67 | 351 | 3.5 | 5.2 | 0.00 | 0.00 | 0.00 | 50 | 4300.1 |
| 20260505211304 | 67 | 323 | 7.8 | 9.6 | 0.00 | 0.00 | 0.00 | 50 | 4300.2 |
| 20260505210800 | 67 | 330 | 0.9 | 4.3 | 0.00 | 0.00 | 0.00 | 51 | 4299.9 |
| 20260505210257 | 68 | 311 | 6.1 | 8.7 | 0.00 | 0.00 | 0.00 | 49 | 4300.2 |
| 20260505205754 | 67 | 269 | 0.0 | 0.0 | 0.00 | 0.00 | 0.00 | 52 | 4300.1 |
| 20260505205253 | 66 | 311 | 5.2 | 6.1 | 0.00 | 0.00 | 0.00 | 51 | 4300.2 |
| 20260505204749 | 66 | 271 | 4.3 | 6.1 | 0.00 | 0.00 | 0.00 | 52 | 4300.2 |
| 20260505204247 | 65 | 279 | 0.0 | 0.0 | 0.00 | 0.00 | 0.00 | 54 | 4300.3 |
| 20260505203744 | 65 | 282 | 2.6 | 4.3 | 0.00 | 0.00 | 0.00 | 55 | 4300.1 |
| 20260505203241 | 65 | 262 | 1.7 | 2.6 | 0.00 | 0.00 | 0.00 | 54 | 4300.0 |
| 20260505202736 | 66 | 257 | 5.2 | 7.8 | 0.00 | 0.00 | 0.00 | 54 | 4300.3 |
| 20260505202233 | 66 | 315 | 5.2 | 9.6 | 0.00 | 0.00 | 0.00 | 55 | 4300.1 |
| 20260505201729 | 66 | 255 | 0.9 | 0.9 | 0.00 | 0.00 | 0.00 | 55 | 4300.2 |
| 20260505201227 | 67 | 261 | 1.7 | 1.7 | 0.00 | 0.00 | 0.00 | 53 | 4300.2 |
| 20260505200725 | 67 | 289 | 2.6 | 4.3 | 0.00 | 0.00 | 0.00 | 53 | 4300.2 |
| 20260505200222 | 67 | 306 | 0.0 | 0.0 | 0.00 | 0.00 | 0.00 | 53 | 4300.2 |
| 20260505195717 | 67 | 281 | 0.0 | 0.0 | 0.00 | 0.00 | 0.00 | 53 | 4300.3 |
| 20260505195215 | 66 | 221 | 0.0 | 0.0 | 0.00 | 0.00 | 0.00 | 54 | 4300.1 |
| 20260505194712 | 67 | 202 | 0.0 | 0.0 | 0.00 | 0.00 | 0.00 | 56 | 4300.2 |
| 20260505194209 | 64 | 196 | 0.0 | 0.0 | 0.00 | 0.00 | 0.00 | 56 | 4300.5 |
| 20260505193704 | 65 | 188 | 0.0 | 0.0 | 0.00 | 0.00 | 0.00 | 58 | 4300.4 |
| 20260505193202 | 65 | 183 | 0.0 | 0.0 | 0.00 | 0.00 | 0.00 | 57 | 4300.4 |
| 20260505192701 | 65 | 183 | 0.0 | 0.0 | 0.00 | 0.00 | 0.00 | 58 | 4300.3 |
| 20260505192158 | 63 | 191 | 0.0 | 0.0 | 0.00 | 0.00 | 0.00 | 59 | 4300.3 |
| 20260505191656 | 64 | 192 | 0.0 | 0.0 | 0.00 | 0.00 | 0.00 | 59 | 4300.4 |
| 20260505191154 | 63 | 164 | 0.0 | 0.0 | 0.00 | 0.00 | 0.00 | 59 | 4300.3 |
| 20260505190649 | 63 | 179 | 0.0 | 0.0 | 0.00 | 0.00 | 0.00 | 59 | 4300.2 |
| 20260505190149 | 62 | 178 | 0.0 | 0.0 | 0.00 | 0.00 | 0.00 | 60 | 4300.6 |
| 20260505185646 | 62 | 184 | 0.0 | 0.0 | 0.00 | 0.00 | 0.00 | 62 | 4300.5 |
| 20260505185142 | 63 | 193 | 0.0 | 0.0 | 0.00 | 0.00 | 0.00 | 59 | 4300.4 |
| 20260505184639 | 63 | 191 | 0.0 | 0.0 | 0.00 | 0.00 | 0.00 | 60 | 4300.3 |
| 20260505184136 | 61 | 183 | 0.0 | 0.0 | 0.00 | 0.00 | 0.00 | 61 | 4300.5 |
| 20260505183633 | 62 | 184 | 0.0 | 0.0 | 0.00 | 0.00 | 0.00 | 62 | 4300.5 |
| 20260505183131 | 62 | 183 | 0.0 | 0.0 | 0.00 | 0.00 | 0.00 | 61 | 4300.5 |
| 20260505182627 | 63 | 180 | 0.0 | 0.0 | 0.00 | 0.00 | 0.00 | 59 | 4300.3 |
| 20260505182124 | 62 | 183 | 0.0 | 0.0 | 0.00 | 0.00 | 0.00 | 60 | 4300.2 |
| 20260505181620 | 63 | 191 | 0.0 | 0.0 | 0.00 | 0.00 | 0.00 | 59 | 4300.2 |
| 20260505181118 | 62 | 183 | 0.0 | 0.0 | 0.00 | 0.00 | 0.00 | 60 | 4300.3 |
| 20260505180614 | 62 | 173 | 0.0 | 0.0 | 0.00 | 0.00 | 0.00 | 61 | 4300.2 |
| 20260505180111 | 62 | 177 | 0.0 | 0.0 | 0.00 | 0.00 | 0.00 | 61 | 4300.2 |
| 20260505175607 | 62 | 167 | 0.0 | 0.0 | 0.00 | 0.00 | 0.00 | 62 | 4300.2 |
| 20260505175104 | 62 | 166 | 0.0 | 0.0 | 0.00 | 0.00 | 0.00 | 62 | 4300.2 |
| 20260505174600 | 62 | 159 | 0.0 | 0.0 | 0.00 | 0.00 | 0.00 | 62 | 4300.0 |
| 20260505174056 | 61 | 169 | 0.0 | 0.0 | 0.00 | 0.00 | 0.00 | 62 | 4299.9 |
| 20260505173553 | 60 | 166 | 0.0 | 0.0 | 0.00 | 0.00 | 0.00 | 65 | 4300.2 |
| 20260505173050 | 59 | 171 | 0.0 | 0.0 | 0.00 | 0.00 | 0.00 | 67 | 4300.2 |
| 20260505172548 | 59 | 165 | 0.0 | 0.0 | 0.00 | 0.00 | 0.00 | 67 | 4300.5 |
| 20260505172044 | 59 | 158 | 0.0 | 0.0 | 0.00 | 0.00 | 0.00 | 70 | 4300.6 |
| 20260505171539 | 59 | 162 | 0.0 | 0.0 | 0.00 | 0.00 | 0.00 | 68 | 4300.4 |
| 20260505171036 | 59 | 166 | 0.0 | 0.0 | 0.00 | 0.00 | 0.00 | 68 | 4300.5 |
| 20260505170533 | 58 | 162 | 0.0 | 0.0 | 0.00 | 0.00 | 0.00 | 71 | 4300.4 |
| 20260505170029 | 57 | 160 | 0.0 | 0.0 | 0.00 | 0.00 | 0.00 | 72 | 4300.4 |
| 20260505165525 | 56 | 162 | 0.0 | 0.0 | 0.00 | 0.00 | 0.00 | 74 | 4300.3 |
| 20260505165020 | 56 | 168 | 0.0 | 0.0 | 0.00 | 0.00 | 0.00 | 76 | 4300.4 |
| 20260505164517 | 56 | 157 | 0.0 | 0.0 | 0.00 | 0.00 | 0.00 | 76 | 4300.3 |
| 20260505164015 | 55 | 161 | 0.0 | 0.0 | 0.00 | 0.00 | 0.00 | 77 | 4300.3 |
| 20260505163513 | 55 | 154 | 0.0 | 0.0 | 0.00 | 0.00 | 0.00 | 78 | 4300.3 |
| 20260505163010 | 55 | 156 | 0.0 | 0.0 | 0.00 | 0.00 | 0.00 | 79 | 4300.3 |
| 20260505162503 | 54 | 154 | 0.0 | 0.0 | 0.00 | 0.00 | 0.00 | 80 | 4300.4 |
| 20260505161959 | 54 | 153 | 0.0 | 0.0 | 0.00 | 0.00 | 0.00 | 81 | 4300.4 |
| 20260505161456 | 54 | 156 | 0.0 | 0.0 | 0.00 | 0.00 | 0.00 | 81 | 4300.2 |
| 20260505160953 | 53 | 157 | 0.0 | 0.0 | 0.00 | 0.00 | 0.00 | 83 | 4300.2 |
| 20260505160452 | 53 | 156 | 0.0 | 0.0 | 0.00 | 0.00 | 0.00 | 85 | 4300.0 |